Location: Baix
(44.7118°N, 4.7648°E)
Time: 17:53:58
(UTC+00:00)

Vanguard 3 - Pass Details

Date: 26 November 2020
Orbit: 508 x 3262 km, 33.4° (Epoch: 16 January)

Event Time Altitude Azimuth Distance (km) Brightness Sun altitude
Exits shadow 04:12:20 11° 215° (SW) 4,238 10.5 -27.9°
Maximum altitude 04:13:38 11° 208° (SSW) 4,352 10.6 -27.7°
Drops below altitude 10° 04:16:27 10° 195° (SSW) 4,710 10.9 -27.2°
Sets 04:26:01 0° 167° (SSE) 6,512 12.0 -25.5°
